DL1GHN-6 Weather Reports


time (UTC)temp
C
wind
direction
speed
KPH
gust
KPH
rain 1hr
cm
rain 24hr
cm
rain mn
cm
humidity
%
barometer
mb
20260904043951 16 259 0.0 3.2 0.00 0.00 0.00 83 1019.6
20260904043451 16 298 0.0 0.0 0.00 0.00 0.00 83 1019.6
20260904042951 16 297 0.0 0.0 0.00 0.00 0.00 83 1019.6
20260904042451 16 297 0.0 0.0 0.00 0.00 0.00 83 1019.6
20260904041951 16 297 0.0 1.6 0.00 0.00 0.00 83 1019.6
20260904041452 16 298 0.0 3.2 0.00 0.00 0.00 83 1019.6
20260904040952 16 297 1.6 3.2 0.00 0.00 0.00 83 1019.5
20260904040452 16 306 0.0 3.2 0.00 0.00 0.00 83 1019.5
20260904035952 16 283 1.6 3.2 0.00 0.00 0.00 83 1019.6
20260904035452 16 254 1.6 3.2 0.00 0.00 0.00 83 1019.7
20260904034954 16 306 0.0 0.0 0.00 0.00 0.00 83 1019.6
20260904034452 16 306 0.0 1.6 0.00 0.00 0.00 83 1019.7
20260904033952 16 306 0.0 1.6 0.00 0.00 0.00 83 1019.7
20260904033451 16 297 0.0 1.6 0.00 0.00 0.00 83 1019.7
20260904032952 16 313 0.0 0.0 0.00 0.00 0.00 83 1019.8
20260904032453 16 313 0.0 3.2 0.00 0.00 0.00 83 1019.8
20260904031952 16 310 0.0 1.6 0.00 0.00 0.00 83 1019.9
20260904031452 16 309 0.0 1.6 0.00 0.00 0.00 83 1019.9
20260904030729 16 323 0.0 1.6 0.00 0.00 0.00 83 1020.0
20260904030229 16 306 0.0 1.6 0.00 0.00 0.00 83 1020.1
20260904025728 16 306 0.0 0.0 0.00 0.00 0.00 83 1020.1
20260904025229 16 306 0.0 3.2 0.00 0.00 0.00 83 1020.1
20260904024729 16 56 0.0 1.6 0.00 0.00 0.00 82 1020.2
20260904024229 16 56 0.0 1.6 0.00 0.00 0.00 82 1020.3
20260904023729 16 55 0.0 3.2 0.00 0.00 0.00 82 1020.3
20260904023229 16 48 0.0 1.6 0.00 0.00 0.00 82 1020.4
20260904022729 16 98 0.0 1.6 0.00 0.00 0.00 82 1020.4
20260904022228 16 194 0.0 0.0 0.00 0.00 0.00 81 1020.5
20260904021729 16 196 0.0 0.0 0.00 0.00 0.00 81 1020.5
20260904021228 16 196 0.0 0.0 0.00 0.00 0.00 81 1020.6
20260904020729 16 196 0.0 1.6 0.00 0.00 0.00 81 1020.5
20260904020228 16 213 0.0 1.6 0.00 0.00 0.00 80 1020.5
20260904015729 16 213 0.0 0.0 0.00 0.00 0.00 80 1020.5
20260904015228 16 213 0.0 0.0 0.00 0.00 0.00 80 1020.5
20260904014728 16 213 0.0 1.6 0.00 0.00 0.00 80 1020.5
20260904014230 16 213 0.0 0.0 0.00 0.00 0.00 80 1020.4
20260904013730 16 213 0.0 0.0 0.00 0.00 0.00 79 1020.5
20260904013228 16 213 0.0 1.6 0.00 0.00 0.00 79 1020.5
20260904012729 17 213 1.6 3.2 0.00 0.00 0.00 79 1020.5
20260904012230 17 134 0.0 0.0 0.00 0.00 0.00 79 1020.4
20260904011729 17 134 0.0 0.0 0.00 0.00 0.00 78 1020.4
20260904011229 17 134 0.0 0.0 0.00 0.00 0.00 78 1020.4
20260904010728 17 134 0.0 0.0 0.00 0.00 0.00 78 1020.6
20260904010229 17 134 0.0 0.0 0.00 0.00 0.00 78 1020.6
20260904005728 17 134 0.0 1.6 0.00 0.00 0.00 77 1020.6
20260904005229 17 133 0.0 1.6 0.00 0.00 0.00 77 1020.7
20260904004729 17 142 1.6 3.2 0.00 0.00 0.00 77 1020.8
20260904004228 18 132 0.0 1.6 0.00 0.00 0.00 77 1020.8
20260904003728 18 120 0.0 1.6 0.00 0.00 0.00 77 1020.8
20260904003228 18 111 0.0 1.6 0.00 0.00 0.00 77 1020.8
20260904002728 18 111 0.0 1.6 0.00 0.00 0.00 76 1020.9
20260904002229 18 159 0.0 0.0 0.00 0.00 0.00 76 1021.0
20260904001728 18 159 0.0 1.6 0.00 0.00 0.00 76 1021.1
20260904001230 18 159 0.0 0.0 0.00 0.00 0.00 76 1021.1
20260904000729 18 159 0.0 3.2 0.00 0.00 0.00 76 1021.1
20260904000230 18 167 1.6 3.2 0.00 0.00 0.00 76 1021.2
20260903235729 18 145 0.0 3.2 0.00 0.00 0.00 77 1021.3
20260903235228 18 153 1.6 3.2 0.00 0.00 0.00 77 1021.2
20260903234729 18 131 0.0 1.6 0.00 0.00 0.00 77 1021.3
20260903234229 18 131 0.0 1.6 0.00 0.00 0.00 76 1021.2
20260903233729 18 131 0.0 1.6 0.00 0.00 0.00 76 1021.2
20260903233228 18 132 0.0 1.6 0.00 0.00 0.00 75 1021.2
20260903232729 18 132 0.0 1.6 0.00 0.00 0.00 75 1021.2
20260903232230 18 132 1.6 3.2 0.00 0.00 0.00 75 1021.2
20260903231729 18 117 1.6 3.2 0.00 0.00 0.00 75 1021.3
20260903231229 18 54 0.0 1.6 0.00 0.00 0.00 74 1021.2
20260903230729 18 54 0.0 0.0 0.00 0.00 0.00 74 1021.2
20260903230229 18 54 0.0 0.0 0.00 0.00 0.00 74 1021.3
20260903225729 18 54 0.0 0.0 0.00 0.00 0.00 73 1021.2
20260903225229 18 54 0.0 0.0 0.00 0.00 0.00 73 1021.3
20260903224729 18 54 1.6 1.6 0.00 0.00 0.00 72 1021.3
20260903224229 18 54 0.0 1.6 0.00 0.00 0.00 72 1021.3
20260903223728 19 52 0.0 3.2 0.00 0.00 0.00 72 1021.4
20260903223229 19 42 0.0 1.6 0.00 0.00 0.00 71 1021.4
20260903222729 19 42 0.0 1.6 0.00 0.00 0.00 71 1021.4
20260903222228 20 39 0.0 0.0 0.00 0.00 0.00 70 1021.5
20260903221729 20 39 0.0 1.6 0.00 0.00 0.00 70 1021.5
20260903221228 20 39 0.0 1.6 0.00 0.00 0.00 69 1021.5
20260903220729 20 39 0.0 3.2 0.00 0.00 0.00 69 1021.5
20260903220229 21 132 0.0 0.0 0.00 0.00 0.00 68 1021.5
20260903215729 21 144 0.0 0.0 0.00 0.00 0.00 68 1021.5
20260903215229 21 146 0.0 1.6 0.00 0.00 0.00 67 1021.5
20260903214729 21 115 0.0 1.6 0.00 0.00 0.00 67 1021.5
20260903214229 21 116 0.0 0.0 0.00 0.00 0.00 67 1021.5
20260903213728 21 116 0.0 0.0 0.00 0.00 0.00 66 1021.4
20260903213229 21 116 0.0 1.6 0.00 0.00 0.00 66 1021.4
20260903212730 21 143 3.2 4.8 0.00 0.00 0.00 67 1021.4
20260903212229 21 125 1.6 4.8 0.00 0.00 0.00 67 1021.4
20260903211729 21 144 3.2 6.4 0.00 0.00 0.00 68 1021.3
20260903211228 21 171 4.8 8.0 0.00 0.00 0.00 68 1021.4
20260903210730 20 229 3.2 6.4 0.00 0.00 0.00 71 1021.5
20260903210229 20 9 0.0 1.6 0.00 0.00 0.00 72 1021.6
20260903205729 20 14 0.0 1.6 0.00 0.00 0.00 72 1021.6
20260903205229 20 14 0.0 1.6 0.00 0.00 0.00 72 1021.5
20260903204729 20 14 0.0 0.0 0.00 0.00 0.00 71 1021.4
20260903204229 20 14 0.0 1.6 0.00 0.00 0.00 71 1021.3
20260903203729 20 14 0.0 1.6 0.00 0.00 0.00 71 1021.3
20260903203228 20 13 1.6 1.6 0.00 0.00 0.00 71 1021.4
20260903202728 20 61 1.6 1.6 0.00 0.00 0.00 71 1021.3
20260903202229 20 35 0.0 1.6 0.00 0.00 0.00 71 1021.3
20260903201729 20 35 0.0 0.0 0.00 0.00 0.00 71 1021.3
20260903201228 20 35 0.0 0.0 0.00 0.00 0.00 71 1021.3
20260903200729 20 35 0.0 0.0 0.00 0.00 0.00 70 1021.3
20260903200229 20 35 0.0 0.0 0.00 0.00 0.00 70 1021.3
20260903195729 20 35 0.0 0.0 0.00 0.00 0.00 69 1021.3
20260903195229 20 35 0.0 1.6 0.00 0.00 0.00 69 1021.3
20260903194729 20 35 0.0 1.6 0.00 0.00 0.00 69 1021.4
20260903194229 20 24 0.0 3.2 0.00 0.00 0.00 68 1021.4
20260903193729 21 65 1.6 3.2 0.00 0.00 0.00 68 1021.3
20260903193228 21 61 0.0 1.6 0.00 0.00 0.00 67 1021.3
20260903192728 21 62 0.0 1.6 0.00 0.00 0.00 68 1021.2
20260903192228 21 62 0.0 1.6 0.00 0.00 0.00 67 1021.2
20260903191730 21 62 0.0 1.6 0.00 0.00 0.00 66 1021.1
20260903191229 21 62 0.0 1.6 0.00 0.00 0.00 66 1021.0
20260903190730 21 62 0.0 1.6 0.00 0.00 0.00 64 1021.0
20260903190229 21 143 0.0 1.6 0.00 0.00 0.00 64 1021.0
20260903185729 22 172 0.0 0.0 0.00 0.00 0.00 63 1021.0
20260903185228 22 172 0.0 0.0 0.00 0.00 0.00 62 1020.9
20260903184729 22 172 0.0 1.6 0.00 0.00 0.00 61 1020.9
20260903184228 22 172 0.0 0.0 0.00 0.00 0.00 61 1020.8
20260903183729 23 172 0.0 1.6 0.00 0.00 0.00 59 1020.9
20260903183228 23 172 0.0 1.6 0.00 0.00 0.00 58 1020.8
20260903182729 23 172 0.0 1.6 0.00 0.00 0.00 57 1020.7
20260903182228 23 177 0.0 1.6 0.00 0.00 0.00 56 1020.7
20260903181728 24 177 1.6 3.2 0.00 0.00 0.00 55 1020.7
20260903181228 25 157 1.6 1.6 0.00 0.00 0.00 54 1020.6
20260903180728 25 153 1.6 3.2 0.00 0.00 0.00 53 1020.6
20260903180229 25 164 0.0 1.6 0.00 0.00 0.00 52 1020.5
20260903175729 26 146 0.0 3.2 0.00 0.00 0.00 50 1020.4
20260903175228 26 141 1.6 3.2 0.00 0.00 0.00 49 1020.4
20260903174729 26 177 1.6 3.2 0.00 0.00 0.00 48 1020.3
20260903174230 26 207 1.6 3.2 0.00 0.00 0.00 48 1020.2
20260903173729 26 194 3.2 4.8 0.00 0.00 0.00 46 1020.2
20260903173228 26 182 3.2 4.8 0.00 0.00 0.00 45 1020.2
20260903172729 27 162 1.6 4.8 0.00 0.00 0.00 44 1020.2
20260903172228 27 172 3.2 8.0 0.00 0.00 0.00 44 1020.2
20260903171729 27 205 4.8 11.3 0.00 0.00 0.00 43 1020.2
20260903171229 27 209 3.2 8.0 0.00 0.00 0.00 43 1020.2
20260903170729 27 221 3.2 6.4 0.00 0.00 0.00 43 1020.2
20260903170228 27 235 6.4 9.7 0.00 0.00 0.00 41 1020.2
20260903165728 27 213 6.4 9.7 0.00 0.00 0.00 41 1020.2
20260903165228 27 258 6.4 11.3 0.00 0.00 0.00 41 1020.2
20260903164728 28 271 8.0 12.9 0.00 0.00 0.00 41 1020.2
20260903164228 28 360 9.7 12.9 0.00 0.00 0.00 40 1020.1
20260903163729 28 306 6.4 11.3 0.00 0.00 0.00 40 1020.1
20260903163228 28 275 3.2 12.9 0.00 0.00 0.00 40 1020.1
20260903162729 28 235 6.4 12.9 0.00 0.00 0.00 38 1020.2
20260903162228 28 251 4.8 11.3 0.00 0.00 0.00 37 1020.2
20260903161728 28 219 4.8 8.0 0.00 0.00 0.00 38 1020.3
20260903161229 28 315 3.2 6.4 0.00 0.00 0.00 40 1020.2
20260903160728 28 273 3.2 8.0 0.00 0.00 0.00 38 1020.2
20260903160228 28 254 8.0 14.5 0.00 0.00 0.00 37 1020.3
20260903155730 28 223 9.7 14.5 0.00 0.00 0.00 37 1020.3
20260903155228 28 253 6.4 16.1 0.00 0.00 0.00 38 1020.3
20260903154729 28 261 6.4 14.5 0.00 0.00 0.00 38 1020.3
20260903154229 28 333 11.3 17.7 0.00 0.00 0.00 36 1020.3
20260903153728 28 301 4.8 14.5 0.00 0.00 0.00 39 1020.4
20260903153229 28 262 6.4 14.5 0.00 0.00 0.00 38 1020.4
20260903152728 29 165 11.3 19.3 0.00 0.00 0.00 35 1020.5
20260903152229 29 250 8.0 19.3 0.00 0.00 0.00 36 1020.5
20260903151729 29 267 11.3 20.9 0.00 0.00 0.00 36 1020.5
20260903151228 29 273 8.0 17.7 0.00 0.00 0.00 37 1020.6
20260903150729 29 271 8.0 19.3 0.00 0.00 0.00 37 1020.6
20260903150229 29 248 8.0 11.3 0.00 0.00 0.00 39 1020.6
20260903145729 29 244 4.8 12.9 0.00 0.00 0.00 37 1020.6
20260903145228 29 209 8.0 17.7 0.00 0.00 0.00 36 1020.7
20260903144729 29 315 9.7 12.9 0.00 0.00 0.00 37 1020.7
20260903144228 28 267 8.0 17.7 0.00 0.00 0.00 38 1020.7
20260903143728 28 238 8.0 11.3 0.00 0.00 0.00 38 1020.7
20260903143228 28 290 11.3 16.1 0.00 0.00 0.00 39 1020.7
20260903142729 28 184 6.4 11.3 0.00 0.00 0.00 40 1020.7
20260903142229 28 232 6.4 11.3 0.00 0.00 0.00 42 1020.8
20260903141728 28 229 6.4 12.9 0.00 0.00 0.00 38 1020.8
20260903141228 28 228 6.4 12.9 0.00 0.00 0.00 40 1020.8
20260903140729 28 262 9.7 16.1 0.00 0.00 0.00 39 1020.8
20260903140228 28 175 8.0 14.5 0.00 0.00 0.00 39 1020.8
20260903135728 28 261 4.8 9.7 0.00 0.00 0.00 40 1020.8
20260903135229 28 228 6.4 12.9 0.00 0.00 0.00 39 1020.8
20260903134728 28 240 12.9 20.9 0.00 0.00 0.00 38 1020.8
20260903134228 28 250 11.3 14.5 0.00 0.00 0.00 39 1020.9
20260903133729 28 272 4.8 9.7 0.00 0.00 0.00 38 1020.9
20260903133229 28 167 8.0 14.5 0.00 0.00 0.00 38 1021.0
20260903132728 28 192 9.7 17.7 0.00 0.00 0.00 37 1021.2
20260903132228 28 211 8.0 14.5 0.00 0.00 0.00 37 1021.2
20260903131728 28 265 9.7 20.9 0.00 0.00 0.00 37 1021.3
20260903131228 28 241 11.3 20.9 0.00 0.00 0.00 38 1021.2
20260903130729 28 198 9.7 16.1 0.00 0.00 0.00 40 1021.3
20260903130228 28 241 6.4 12.9 0.00 0.00 0.00 39 1021.3
20260903125729 28 314 9.7 12.9 0.00 0.00 0.00 40 1021.3
20260903125228 27 213 8.0 16.1 0.00 0.00 0.00 40 1021.3
20260903124728 27 325 6.4 11.3 0.00 0.00 0.00 40 1021.2
20260903124229 27 254 9.7 17.7 0.00 0.00 0.00 39 1021.2
20260903123728 27 229 8.0 14.5 0.00 0.00 0.00 40 1021.1
20260903123228 27 163 6.4 14.5 0.00 0.00 0.00 40 1021.1
20260903122728 27 241 4.8 11.3 0.00 0.00 0.00 39 1021.2
20260903122229 27 232 9.7 20.9 0.00 0.00 0.00 39 1021.2
20260903121729 27 223 3.2 14.5 0.00 0.00 0.00 41 1021.1
20260903121228 27 241 8.0 19.3 0.00 0.00 0.00 39 1021.1
20260903120728 27 153 8.0 16.1 0.00 0.00 0.00 40 1021.1
20260903120228 27 166 8.0 16.1 0.00 0.00 0.00 39 1021.1
20260903115728 27 247 8.0 12.9 0.00 0.00 0.00 38 1021.3
20260903115229 27 193 9.7 19.3 0.00 0.00 0.00 38 1021.3
20260903114728 28 269 6.4 16.1 0.00 0.00 0.00 41 1021.4
20260903114228 28 175 14.5 20.9 0.00 0.00 0.00 38 1021.6
20260903113729 27 285 8.0 14.5 0.00 0.00 0.00 40 1021.7
20260903113228 27 250 8.0 14.5 0.00 0.00 0.00 42 1021.8
20260903112729 27 182 4.8 11.3 0.00 0.00 0.00 41 1021.7
20260903112228 27 237 9.7 17.7 0.00 0.00 0.00 40 1021.8
20260903111728 27 192 8.0 11.3 0.00 0.00 0.00 41 1021.9
20260903111228 26 187 6.4 12.9 0.00 0.00 0.00 47 1022.0
20260903110728 26 196 8.0 14.5 0.00 0.00 0.00 43 1021.9
20260903110230 26 194 11.3 16.1 0.00 0.00 0.00 43 1022.1
20260903105729 26 284 8.0 19.3 0.00 0.00 0.00 44 1022.2
20260903105229 26 182 3.2 12.9 0.00 0.00 0.00 43 1022.4
20260903104729 26 176 4.8 20.9 0.00 0.00 0.00 43 1022.5
20260903104228 26 281 8.0 12.9 0.00 0.00 0.00 43 1022.5
20260903103729 26 233 8.0 14.5 0.00 0.00 0.00 42 1022.3
20260903103229 26 294 8.0 14.5 0.00 0.00 0.00 43 1022.4
20260903102728 26 246 6.4 14.5 0.00 0.00 0.00 45 1022.4
20260903102228 26 259 8.0 12.9 0.00 0.00 0.00 43 1022.6
20260903101729 26 257 9.7 17.7 0.00 0.00 0.00 43 1022.5
20260903101228 26 221 6.4 14.5 0.00 0.00 0.00 44 1022.6
20260903100729 26 214 3.2 19.3 0.00 0.00 0.00 44 1022.5
20260903100229 26 146 4.8 12.9 0.00 0.00 0.00 47 1022.6
20260903095728 25 219 9.7 12.9 0.00 0.00 0.00 45 1022.6
20260903095229 25 205 6.4 11.3 0.00 0.00 0.00 47 1022.6
20260903094729 25 213 3.2 11.3 0.00 0.00 0.00 46 1022.6
20260903094229 25 188 4.8 14.5 0.00 0.00 0.00 47 1022.7
20260903093729 25 186 6.4 11.3 0.00 0.00 0.00 48 1022.7
20260903093228 24 149 6.4 12.9 0.00 0.00 0.00 50 1022.7
20260903092728 24 199 4.8 12.9 0.00 0.00 0.00 54 1022.7
20260903092229 24 194 1.6 16.1 0.00 0.00 0.00 56 1022.8
20260903091729 23 228 8.0 14.5 0.00 0.00 0.00 54 1022.8
20260903091228 23 221 8.0 20.9 0.00 0.00 0.00 53 1022.8
20260903090728 23 227 9.7 16.1 0.00 0.00 0.00 54 1022.7
20260903090229 23 177 6.4 11.3 0.00 0.00 0.00 58 1022.7
20260903085729 23 175 4.8 14.5 0.00 0.00 0.00 56 1022.9
20260903085229 23 181 3.2 9.7 0.00 0.00 0.00 56 1023.0
20260903084728 23 240 4.8 12.9 0.00 0.00 0.00 58 1023.0
20260903084228 22 186 6.4 9.7 0.00 0.00 0.00 59 1023.0
20260903083729 22 21 4.8 14.5 0.00 0.00 0.00 58 1023.0
20260903083228 22 268 8.0 11.3 0.00 0.00 0.00 59 1023.0
20260903082728 22 177 9.7 14.5 0.00 0.00 0.00 58 1022.8
20260903082228 21 163 6.4 14.5 0.00 0.00 0.00 58 1022.6
20260903081729 21 171 6.4 12.9 0.00 0.00 0.00 61 1022.6
20260903081229 21 145 6.4 9.7 0.00 0.00 0.00 63 1022.7
20260903080729 20 128 6.4 11.3 0.00 0.00 0.00 66 1022.6
20260903080228 20 155 4.8 11.3 0.00 0.00 0.00 67 1022.6
20260903075728 20 150 4.8 14.5 0.00 0.00 0.00 67 1022.7
20260903075229 19 150 3.2 8.0 0.00 0.00 0.00 70 1022.8
20260903074728 18 152 3.2 8.0 0.00 0.00 0.00 71 1023.0
20260903074231 18 275 4.8 9.7 0.00 0.00 0.00 74 1023.1
20260903073728 17 302 3.2 9.7 0.00 0.00 0.00 76 1023.1
20260903073228 17 237 1.6 4.8 0.00 0.00 0.00 78 1023.1
20260903072729 16 194 4.8 11.3 0.00 0.00 0.00 81 1023.1
20260903072228 16 274 1.6 8.0 0.00 0.00 0.00 85 1023.1
20260903071728 16 280 0.0 4.8 0.00 0.00 0.00 88 1022.9
20260903071228 15 240 1.6 4.8 0.00 0.00 0.00 89 1022.8
20260903070728 15 302 1.6 3.2 0.00 0.00 0.00 89 1022.9
20260903070229 15 277 1.6 3.2 0.00 0.00 0.00 90 1022.9
20260903065729 15 311 1.6 4.8 0.00 0.00 0.00 90 1022.8
20260903065229 14 307 1.6 4.8 0.00 0.00 0.00 90 1022.7
20260903064728 14 288 1.6 3.2 0.00 0.00 0.00 90 1022.8
20260903064229 13 272 1.6 3.2 0.00 0.00 0.00 90 1022.7
20260903063728 13 221 0.0 1.6 0.00 0.00 0.00 91 1022.7
20260903063228 13 173 0.0 1.6 0.00 0.00 0.00 90 1022.6
20260903062729 12 128 0.0 1.6 0.00 0.00 0.00 90 1022.5
20260903062228 12 139 0.0 1.6 0.00 0.00 0.00 90 1022.6
20260903061728 12 158 0.0 1.6 0.00 0.00 0.00 90 1022.6
20260903061228 12 161 0.0 0.0 0.00 0.00 0.00 90 1022.7
20260903060728 12 166 0.0 0.0 0.00 0.00 0.00 90 1022.7
20260903060229 11 159 0.0 1.6 0.00 0.00 0.00 90 1022.7
20260903055729 11 174 0.0 1.6 0.00 0.00 0.00 90 1022.7
20260903055228 11 159 0.0 1.6 0.00 0.00 0.00 89 1022.8
20260903054729 11 155 0.0 0.0 0.00 0.00 0.00 89 1022.9
20260903054228 11 150 0.0 1.6 0.00 0.00 0.00 89 1023.0
20260903053729 11 159 0.0 1.6 0.00 0.00 0.00 89 1022.9
20260903053229 11 184 0.0 1.6 0.00 0.00 0.00 89 1022.9
20260903052728 11 146 0.0 3.2 0.00 0.00 0.00 89 1022.9
20260903052228 11 145 0.0 3.2 0.00 0.00 0.00 89 1022.8
20260903051728 11 150 0.0 4.8 0.00 0.00 0.00 88 1022.8
20260903051229 11 293 0.0 0.0 0.00 0.00 0.00 88 1022.8
20260903050728 11 297 0.0 1.6 0.00 0.00 0.00 88 1022.7
20260903050228 11 292 0.0 3.2 0.00 0.00 0.00 88 1022.6
20260903045728 11 265 0.0 3.2 0.00 0.00 0.00 88 1022.6
20260903045228 11 250 0.0 3.2 0.00 0.00 0.00 88 1022.5
20260903044728 11 217 0.0 1.6 0.00 0.00 0.00 88 1022.4